Regional Weather Roundup
Issued by NWS Little Rock, AR

Home | Current Version | Previous Version | Graphics & Text | Print | Product List | Glossary On
Versions: 1 2 3 4 5 6 7 8 9 10 11 12 13 14 15 16 17 18 19 20 21 22 23 24 25 26 27 28 29 30 31 32 33 34 35 36 37 38 39 40 41 42 43 44 45 46 47 48 49 50
000
ASUS44 KLZK 251905
RWRLZK

WEATHER ROUNDUP FOR ARKANSAS
NATIONAL WEATHER SERVICE LITTLE ROCK AR
200 PM CDT FRI JUL 25 2014

NOTE: "FAIR" INDICATES FEW OR NO CLOUDS BELOW 12,000 FEET WITH NO
SIGNIFICANT WEATHER AND/OR OBSTRUCTIONS TO VISIBILITY.

ARZ001-003-010-029-252000-
NORTHWEST ARKANSAS

CITY           SKY/WX    TMP DP  RH WIND       PRES   REMARKS
FAYETTEVILLE   SUNNY     85  70  60 SW13      30.01F HX  89
FORT SMITH     MOSUNNY   90  73  57 S10       29.97F HX  98
HARRISON       SUNNY     85  72  65 S10       30.02S HX  91
BENTONVILLE    SUNNY     86  70  58 S8G17     30.01F HX  90
ROGERS         SUNNY     88  68  51 S14       30.01F HX  91
SILOAM SPGS    SUNNY     88  68  51 S12       30.00F HX  91
HIGHFILL       SUNNY     88  70  55 S16       29.99F HX  93
SPRINGDALE     SUNNY     86  70  58 SW14      30.02F HX  90
$$

ARZ004-005-016-252000-
NORTH CENTRAL ARKANSAS

CITY           SKY/WX    TMP DP  RH WIND       PRES   REMARKS
BATESVILLE     SUNNY     84  66  54 S6        30.02F HX  86
FLIPPIN        MOSUNNY   86  70  58 S5        30.00F HX  90
MTN HOME       MOSUNNY   84  70  62 SE8       30.00F HX  88
$$

ARZ040-041-252000-
WEST CENTRAL ARKANSAS

CITY           SKY/WX    TMP DP  RH WIND       PRES   REMARKS
MENA           PTSUNNY   86  72  62 CALM      30.03F HX  92
MOUNT IDA      MOSUNNY   84  72  67 VRB3      30.01F HX  89
$$

ARZ009-017-025-026-028-252000-
NORTHEAST ARKANSAS

CITY           SKY/WX    TMP DP  RH WIND       PRES   REMARKS
CORNING        LGT RAIN  81  63  54 S6        30.03F
JONESBORO      SUNNY     81  62  52 SE5       30.04S
NEWPORT        SUNNY     84  65  52 S6        30.04F HX  85
WALNUT RIDGE   SUNNY     81  48  32 E6        30.03F
BLYTHEVILLE    SUNNY     84  64  50 N7        30.05S HX  85
$$

ARZ022-023-033-042-044-252000-
CENTRAL ARKANSAS

CITY           SKY/WX    TMP DP  RH WIND       PRES   REMARKS
LITTLE ROCK    MOSUNNY   85  65  51 S7        30.03S HX  86
N LITTLE ROCK  MOSUNNY   83  69  62 W3        30.03S HX  87
JACKSONVILLE   SUNNY     85  67  54 VRB5      30.02F HX  88
SEARCY         SUNNY     85  68  56 CALM      30.03F HX  88
HOT SPRINGS    PTSUNNY   84  70  62 SW8       30.02F HX  88
RUSSELLVILLE   MOSUNNY   87  72  60 VRB6      30.00F HX  93
CLINTON        FAIR      84  72  65 SW6       30.02F HX  89
$$

ARZ036-252000-
EAST ARKANSAS

CITY           SKY/WX    TMP DP  RH WIND       PRES   REMARKS
WEST MEMPHIS   SUNNY     85  60  42 VRB3      30.03S HX  85
$$

ARZ050-053-066-070-073-252000-
SOUTHWEST ARKANSAS

CITY           SKY/WX    TMP DP  RH WIND       PRES   REMARKS
ARKADELPHIA    FAIR      88  74  63 SW3       30.02F HX  96
CAMDEN         PTSUNNY   86  70  58 S3        30.01F HX  90
TEXARKANA      MOSUNNY   89  72  56 SW7       30.01F HX  96
EL DORADO      PTSUNNY   86  72  62 S3        30.01F HX  92
DE QUEEN       MOSUNNY   86  74  67 VRB3      29.99F HX  94
$$

ARZ056-057-069-252000-
SOUTHEAST ARKANSAS

CITY           SKY/WX    TMP DP  RH WIND       PRES   REMARKS
PINE BLUFF     SUNNY     85  67  54 E7        30.02F HX  87
STUTTGART      SUNNY     84  66  54 CALM      30.04S HX  86
MONTICELLO     SUNNY     87  68  52 VRB5      30.02F HX  90

$$




USA.gov is the U.S. government's official web portal to all federal, state and local government web resources and services.